Regional Weather Roundup
Issued by NWS Northern Indiana

Home | Current Version | Previous Version | Text Only | Print | Product List | Glossary On
Versions: 1 2 3 4 5 6 7 8 9 10 11 12 13 14 15 16 17 18 19 20 21 22 23 24 25 26 27 28 29 30 31 32 33 34 35 36 37 38 39 40 41 42 43 44 45 46 47 48 49 50
000
ASUS43 KIWX 271000
RWRIWX

KIWX WEATHER ROUNDUP
NATIONAL WEATHER SERVICE NORTHERN INDIANA
600 AM EDT TUE JUN 27 2017

NOTE: "FAIR" INDICATES FEW OR NO CLOUDS BELOW 12,000 FEET WITH NO
SIGNIFICANT WEATHER AND/OR OBSTRUCTIONS TO VISIBILITY.

* THESE STATIONS ARE NOT UNDER NWS QUALITY CONTROL. THEY ALSO MAY NOT
  REPORT WEATHER SUCH AS PRECIPITATION OR FOG.

INZ001>027-271100-
NORTHERN INDIANA

CITY           SKY/WX    TMP DP  RH WIND       PRES   REMARKS
GARY*          CLEAR     48  45  87 CALM      30.12R
MICHIGAN CITY* CLEAR     55  48  76 CALM      30.11R
KNOX*          CLEAR     50  41  71 W5        30.11R
SOUTH BEND     CLEAR     48  47  96 W3        30.11R
GOSHEN         CLEAR     49  45  86 SW3       30.10R
MONTICELLO*    CLEAR     50  48  92 CALM      30.12R
FORT WAYNE     PTCLDY    52  48  86 W7        30.09R
PERU/GRISSOM   CLEAR     50  50  99 W6        30.10R

$$
INZ028>050-271100-
CENTRAL INDIANA

CITY           SKY/WX    TMP DP  RH WIND       PRES   REMARKS
LAFAYETTE      FOG       49  49 100 W3        30.12R VSB 1/4
KOKOMO*        CLEAR     51  49  92 W7        30.12R
MUNCIE*        CLEAR     52  49  89 W5        30.11R
INDIANAPOLIS   CLEAR     51  48  89 W5        30.12R

$$
MIZ043>046-050>051-056>058-064>065-071>073-077>080-271100-
SOUTHWEST LOWER MICHIGAN

CITY           SKY/WX    TMP DP  RH WIND       PRES   REMARKS
BATTLE CREEK   CLEAR     48  47  96 W5        30.08R
BENTON HARBOR  CLEAR     56  49  77 NW3       30.09R
COLDWATER*     CLEAR     49  47  95 W5        30.08R
HILLSDALE*     CLEAR     46  45  93 W6        30.06R
HOLLAND        CLEAR     48  45  89 CALM      30.08R
GRAND RAPIDS   PTCLDY    49  49 100 W7        30.06R
KALAMAZOO      CLEAR     50  45  83 CALM      30.08R
STURGIS*       CLEAR     48  47  95 CALM      30.07S
THREE RIVERS*  FAIR      48  46  90 CALM      30.09R

$$
OHZ001>008-015>018-024>025-271100-
NORTHWEST OHIO

CITY           SKY/WX    TMP DP  RH WIND       PRES   REMARKS
DEFIANCE       MOCLDY    49  46  90 SW3       30.07R
FINDLAY        CLEAR     50  45  83 W5        30.06R
TOLEDO EXPRESS CLEAR     49  47  93 W7        30.05R
TOLEDO METCALF CLEAR     52  48  86 W9        30.05R
LIMA           CLEAR     52  47  83 W6        30.07R

$$
AND FOR LAKE MICHIGAN COASTAL AND OPEN LAKE BUOY OBSERVATIONS

STATION/POSITION TEMP    WIND        PRES    VSBY  WAVE
                 AIR SEA DIR/SP/G                  HT/PER
                 (F)     (DEG/KT/KT) (MB)    (MI)  (FT/S)
CALUMET HARBOR    55     250/  1/  3 1018.9R
MICHIGAN CITY     60     320/ 12/ 14   N/A
BURNS HARBOR      61     330/  7/ 10 1019.6S
SOUTH LAKE BUOY   59 61  300/  8/  8 1018.3          2/ 5
4 MI NW BRIDGMAN  60 68  350/ 10/ 14 1019.3R         3/ 5
MICHIGAN CITY     60 65  320/ 10/ 12   N/A           3/ 5

$$
&&




USA.gov is the U.S. government's official web portal to all federal, state and local government web resources and services.